Regional Weather Roundup
Issued by NWS

Home | Current Version | Previous Version | Text Only | Print | Product List | Glossary On
Versions: 1 2 3 4 5 6 7 8 9 10 11 12 13 14 15 16 17 18 19 20 21 22 23 24 25 26 27 28 29 30 31 32 33 34 35 36 37 38 39 40 41 42 43 44 45 46 47 48 49 50
472
ASUS44 KLIX 210205
RWRLA
LOUISIANA WEATHER ROUNDUP
NATIONAL WEATHER SERVICE NEW ORLEANS LA
900 PM CDT MON OCT 20 2014

NOTE: "FAIR" INDICATES FEW OR NO CLOUDS BELOW 12,000 FEET WITH NO
      SIGNIFICANT WEATHER AND/OR OBSTRUCTIONS TO VISIBILITY.
      SKY/WX - SKY CONDITION AND SIGNIFICANT WEATHER.
      TMP - AIR TEMPERATURE.    DP   - DEWPOINT TEMPERATURE.
      RH  - RELATIVE HUMIDITY.  PRES - PRESSURE.
      HX  - HEAT INDEX.         WCI  - WIND CHILL INDEX.

*  THESE STATIONS ARE NOT NWS OR FAA STATIONS AND ARE NOT UNDER
   NWS QUALITY CONTROL.

LAZ040-048-061>063-065-066-069-210300-
SOUTHEAST LOUISIANA

CITY           SKY/WX    TMP DP  RH WIND       PRES   REMARKS
N.O. AUDUBON   NOT AVBL
N.O. INTL ARPT PTCLDY    69  54  58 N3        30.01S
N.O. LAKEFRONT CLEAR     73  55  53 N6        30.01S
N.O. DOWNTOWN* FAIR      73  54  49 N3        30.01S
SLIDELL        CLEAR     59  56  89 CALM      30.01R
BATON ROUGE    CLEAR     60  57  89 CALM      30.03R
BOOTHVILLE     CLEAR     72  65  78 NE6       30.01R
BELLE CHASSE   PTCLDY    60  55  83 CALM      30.00S
BOGALUSA*        N/A     58  52  82 CALM      30.03S
NEW ROADS*     FAIR      61  56  84 CALM      30.03R
GONZALES*      FAIR      59  59 100 CALM      30.01S
HAMMOND*         N/A     59  54  82 CALM      30.03S
HOUMA*         CLEAR     65  56  72 NE5       30.00S
PORT FOURCHON* MOCLDY    72  63  73 NE9       30.03S

$$

LAZ041-044-053-054-210300-
SOUTHWEST LOUISIANA

CITY           SKY/WX    TMP DP  RH WIND       PRES   REMARKS
LAKE CHARLES   CLEAR     65  56  72 NE6       30.02R
LAFAYETTE      CLEAR     64  57  78 NE3       30.01F
PATTERSON        N/A    N/A N/A N/A CALM        N/A
SALT POINT       N/A     69  59  70 CALM      30.00S
NEW IBERIA     CLEAR     65  57  75 NE6       30.02S
CHENAULT AIRPK NOT AVBL

$$

LAZ027-028-210300-
CENTRAL LOUISIANA

CITY           SKY/WX    TMP DP  RH WIND       PRES   REMARKS
FORT POLK      CLEAR     60  56  85 NW1       30.03S
ALEXANDRIA INT CLEAR     59  56  89 CALM      30.02S
ALEXANDRIA     CLEAR     58  55  90 CALM      30.04S

$$

LAZ001-002-210300-
NORTHWEST LOUISIANA

CITY           SKY/WX    TMP DP  RH WIND       PRES   REMARKS
SHREVEPORT     CLEAR     63  55  75 CALM      30.04R
BARKSDALE AFB  CLEAR     59  55  88 S2        30.04S
DTN SHREVEPORT CLEAR     63  55  75 CALM      30.04S

$$

LAZ014-016-210300-
NORTHEAST LOUISIANA

CITY           SKY/WX    TMP DP  RH WIND       PRES   REMARKS
MONROE         CLEAR     59  55  87 CALM      30.05S
TALLULAH       CLEAR     54  52  93 CALM      30.05R

$$




USA.gov is the U.S. government's official web portal to all federal, state and local government web resources and services.